Regional Weather Roundup
Issued by NWS

Home | Current Version | Previous Version | Graphics & Text | Print | Product List | Glossary On
Versions: 1 2 3 4 5 6 7 8 9 10 11 12 13 14 15 16 17 18 19 20 21 22 23 24 25 26 27 28 29 30 31 32 33 34 35 36 37 38 39 40 41 42 43 44 45 46 47 48 49 50
000
ASUS43 KDMX 271107
RWRIA

WEATHER ROUNDUP FOR IOWA
NATIONAL WEATHER SERVICE DES MOINES IA
600 AM CDT SUN JUL 27 2014

NOTE: "FAIR" INDICATES FEW OR NO CLOUDS BELOW 12,000 FEET WITH NO
SIGNIFICANT WEATHER AND/OR OBSTRUCTIONS TO VISIBILITY.

* - THESE STATIONS ARE NOT NWS STATIONS...THUS NOT UNDER NWS
QUALITY CONTROL.  THEY ALSO DO NOT REPORT WEATHER SUCH
AS PRECIPITATION OR FOG.

IAZ001>003-012>014-020>022-031>034-043>046-271200-
   NORTHWEST IOWA

CITY           SKY/WX    TMP DP  RH WIND       PRES   REMARKS
CARROLL *      CLEAR     63  59  88 W7        29.96R
CHEROKEE *     CLEAR     61  57  88 NW5       29.98R
DENISON *      CLEAR     63  61  94 SW3       29.97R
LE MARS *      CLEAR     61  55  82 NW7       30.00R
ORANGE CITY *  CLEAR     59  54  82 W5        29.99S
SHELDON *      CLEAR     61  55  82 NW10G17   29.96S
SIOUX CITY     CLEAR     62  57  83 W8        30.01R
SPENCER        CLEAR     61  55  81 W14       29.94S
STORM LAKE *   CLEAR     57  57 100 W12       29.98R
$$

IAZ055>058-069>071-079>083-090>094-271200-
   SOUTHWEST IOWA

CITY           SKY/WX    TMP DP  RH WIND       PRES   REMARKS
ATLANTIC *     CLEAR     64  63  94 NW5       29.98R
AUDUBON *      CLEAR     66  63  88 CALM      29.99R
CLARINDA *     CLEAR     63  63 100 CALM      29.99R FOG
COUNCIL BLFS *   N/A     68  68 100 NW6       30.00R
CRESTON *      CLEAR     66  66 100 NW8       29.97R
HARLAN  *      CLEAR     63  63 100 W5        30.03R
LAMONI         CLEAR     67  66  97 W6        29.95R FOG
RED OAK *      CLEAR     68  66  94 NW6       29.99R
SHENANDOAH *   FOG       66  66 100 CALM      29.99R VSB 1/2
$$

IAZ047>049-059>061-072>074-084-271200-
   CENTRAL IOWA

CITY           SKY/WX    TMP DP  RH WIND       PRES   REMARKS
AMES           CLEAR     66  62  87 NW7       29.91R
ANKENY *       CLEAR     68  64  88 W7        29.91R
CHARITON *     CLEAR     70  68  94 W8        29.93R FOG
DES MOINES     CLEAR     69  63  81 NW8       29.92R
GRINNELL*      CLEAR     66  64  94 W3        29.90R
KNOXVILLE *    CLEAR     70  68  94 W7        29.90R FOG
MARSHALLTOWN   CLEAR     65  63  93 NW9       29.88R
PELLA *        CLEAR     70  68  94 W8        29.91R FOG
PERRY *          N/A     64  63  94 NW6       29.94R
$$

IAZ004>006-015-016-023>025-035-036-271200-
   NORTH CENTRAL IOWA

CITY           SKY/WX    TMP DP  RH WIND       PRES   REMARKS
ALGONA *       CLEAR     61  59  94 W8        29.91F
CLARION *      CLEAR     61  61 100 W7        29.91S
ESTHERVILLE    CLEAR     62  55  77 W9        29.92
FORT DODGE *   CLEAR     63  57  82 W3        29.93S
MASON CITY     CLEAR     60  57  89 W9        29.89S
FOREST CITY *  CLEAR     63  55  77 NE10      29.88F
IOWA FALLS *     N/A     63  61  94 W6        29.91S
$$

IAZ007>011-017>019-026>030-037>042-050>054-066-271200-
   NORTHEAST IOWA

CITY           SKY/WX    TMP DP  RH WIND       PRES   REMARKS
CEDAR RAPIDS   PTCLDY    68  66  93 W8        29.84R
CHARLES CITY * CLEAR     64  61  88 W8        29.87S
CLINTON *        N/A     66  66 100 W6        29.84S VSB<1/4
DECORAH *      CLEAR     64  63  94 W3        29.83R
DUBUQUE        CLEAR     68  65  90 W7        29.82S
MONTICELLO *   CLEAR     66  66 100 CALM      29.83S
OELWEIN *      CLEAR     64  64 100 W8        29.86S
WATERLOO       CLEAR     66  62  87 W8        29.86R
$$

IAZ064-065-067-068-078-271200-
   EAST CENTRAL IOWA

CITY           SKY/WX    TMP DP  RH WIND       PRES   REMARKS
DAVENPORT      FOG       64  63  96 W6        29.83S VSB 1/4
IOWA CITY      PTCLDY    69  68  96 W7        29.86R
MT. PLEASANT * CLEAR     72  70  94 W5        29.86S FOG
MUSCATINE *    CLEAR     70  68  94 W3        29.84R FOG
QUAD CITIES    FOG       68  67  96 W5        29.82S VSB 1
$$

IAZ062-063-075>077-085>089-095>099-271200-
   SOUTHEAST IOWA

CITY           SKY/WX    TMP DP  RH WIND       PRES   REMARKS
BURLINGTON     PTCLDY    72  71  97 NW6       29.84S FOG
FAIRFIELD *    CLEAR     70  68  94 W6        29.87S FOG
FORT MADISON * CLOUDY    73  73 100 NW5       29.87R FOG
KEOKUK *       CLOUDY    73  73 100 NW7       29.85R FOG
OSKALOOSA *      N/A     68  68 100 W6        29.89R FOG
CENTERVILLE *  PTCLDY    70  70 100 W5        29.93R FOG
OTTUMWA        FOG       70  69  97 W7        29.88R VSB 3/4
WASHINGTON *   CLEAR     68  68 100 W7        29.86R FOG
$$

ABBREVIATIONS USED IN REMARKS
   TC - TEMPERATURES IN CELSIUS
  WCI - WIND CHILL INDEX
   HX - HEAT INDEX
  VSB - VISIBILITY
$$



USA.gov is the U.S. government's official web portal to all federal, state and local government web resources and services.